Wind_Speed
30 30 30 30 30 30 30 29 29 29 29 29 29 29 29 29 28 28 28 28 28 28 27 28 28 28 27 27 27 26 26 26 25 25 25 25 25 25 25 25 25 25 25
31 31 31 31 31 31 31 31 31 30 30 30 30 31 30 30 30 29 29 29 29 29 29 29 29 29 29 29 29 28 28 27 27 27 27 27 27 27 27 28 28 28 28
32 32 32 32 32 33 33 32 32 32 32 31 31 31 31 31 31 30 30 30 31 30 30 30 30 31 31 30 30 30 30 30 29 29 29 29 29 29 29 29 29 30 29
33 34 34 34 34 33 33 33 33 33 33 33 33 33 33 33 32 31 31 31 32 32 32 32 32 32 33 32 32 32 32 32 32 32 32 31 31 31 31 31 31 31 31
35 35 35 35 35 35 34 34 34 34 33 33 34 34 34 34 34 33 33 33 33 33 33 34 34 34 34 35 34 34 34 34 34 34 34 33 33 33 33 33 33 33 33
37 37 36 36 36 36 36 36 35 35 35 35 35 35 35 35 36 36 35 34 35 35 35 36 35 36 36 36 36 36 37 36 36 35 36 36 36 36 35 35 35 35 35
38 38 37 37 37 37 37 37 36 36 36 37 37 37 36 36 36 37 37 37 36 36 36 36 37 36 36 36 37 37 37 38 38 37 37 38 38 38 37 37 37 37 37
38 38 38 38 38 38 38 37 37 37 37 37 38 38 37 37 38 38 39 39 39 39 39 38 38 38 38 37 37 38 38 38 39 39 40 40 40 39 39 39 39 39 39
39 39 39 39 39 39 38 38 38 37 38 39 38 38 38 38 38 38 39 39 39 40 41 41 40 40 39 40 40 39 39 39 39 40 41 41 42 42 42 41 41 41 40
41 40 40 40 40 40 40 39 39 39 39 39 39 39 39 39 39 39 39 40 40 40 40 40 41 41 42 42 42 42 41 41 41 41 42 43 42 42 43 42 42 42 43
41 40 41 41 41 41 41 41 40 40 39 39 40 40 39 39 40 40 40 40 42 41 41 40 40 41 42 42 43 44 43 43 43 43 44 43 43 43 43 44 44 44 44
41 41 42 42 42 42 42 41 41 40 40 40 40 40 40 40 40 40 40 41 41 41 41 41 42 42 43 44 45 45 44 44 44 44 45 45 45 45 46 46 46 46 46
42 43 43 43 43 43 42 42 41 42 42 40 40 40 39 39 39 40 40 40 41 42 42 43 43 43 43 44 44 45 45 45 45 45 46 46 47 47 47 47 47 47 47
43 43 43 43 43 42 43 43 42 42 42 41 40 39 39 39 39 40 40 41 42 42 43 43 44 44 44 44 45 46 46 45 46 46 47 47 47 47 47 47 48 48 48
44 44 44 43 43 42 42 42 42 42 42 41 41 40 40 40 40 40 40 41 42 42 42 42 44 44 44 45 46 46 46 47 47 46 47 46 46 47 48 48 49 49 50
44 44 44 43 43 44 43 43 42 42 42 41 41 41 41 41 41 41 42 42 43 43 43 43 44 44 45 46 46 46 47 48 47 47 47 46 47 48 48 49 50 50 50
44 44 44 43 43 43 43 42 42 42 41 41 41 40 40 41 41 42 42 43 43 44 45 45 46 46 46 47 47 46 46 47 47 47 47 47 48 49 50 50 50 50 50
43 43 43 43 43 43 43 42 41 41 41 41 41 41 41 41 41 41 42 42 43 43 44 45 45 46 47 47 47 47 48 47 48 47 47 48 49 50 50 50 50 50 50
42 42 43 43 43 43 43 42 42 41 41 41 41 41 42 41 40 40 40 41 42 42 43 44 44 44 45 46 46 46 47 47 48 48 47 48 49 49 49 50 50 51 51
42 42 42 42 42 42 42 42 42 42 41 41 40 40 40 40 41 41 41 41 41 42 42 43 44 45 45 46 46 47 47 47 47 47 47 47 48 48 48 49 49 49 49
42 42 42 42 42 42 42 42 42 42 41 41 41 40 40 40 41 42 42 42 42 42 42 43 44 45 46 46 47 47 47 47 47 48 48 48 48 48 48 48 48 48 48
42 41 41 42 42 42 42 42 42 42 41 41 41 41 40 40 41 41 42 42 42 42 43 43 44 45 45 46 46 46 47 47 47 47 48 48 48 48 48 48 47 47 47
40 41 41 41 42 42 43 42 42 42 42 41 41 41 41 40 40 40 41 41 41 42 43 44 43 43 43 44 45 46 46 47 47 47 47 46 47 47 47 46 46 47 47
39 40 40 40 40 41 41 41 41 40 40 40 40 40 40 40 40 41 41 41 41 41 42 42 43 43 42 42 43 43 44 44 45 45 46 45 45 45 45 46 46 46 46
37 38 38 38 38 38 39 39 40 39 40 40 40 40 41 41 41 41 41 41 41 41 41 41 41 41 42 43 43 44 44 44 44 44 44 44 44 45 45 45 46 46 46
37 37 38 37 37 37 38 38 39 40 40 40 40 40 40 40 40 40 41 41 41 41 41 41 41 41 41 42 42 43 43 43 44 43 43 43 44 44 44 44 45 46 46
Wind_Direction
252 252 252 253 253 253 253 253 253 253 254 255 256 257 257 257 258 258 259 258 258 258 257 256 257 256 255 254 255 256 257 258 259 260 261 262 263 264 265 266 267 268 270
253 253 253 253 254 254 254 254 254 255 256 257 258 258 258 258 258 258 259 259 259 258 257 256 257 258 257 256 256 257 257 258 259 261 261 262 263 265 265 266 267 268 269
254 254 254 255 255 255 255 254 255 256 256 257 258 258 258 258 258 259 259 259 259 258 258 257 257 258 257 257 257 257 257 258 259 260 261 262 264 265 266 267 268 268 268
254 254 255 255 256 256 256 256 256 257 257 257 258 259 259 259 258 259 259 260 259 258 258 258 258 258 258 258 258 258 258 259 259 260 262 264 265 266 266 268 269 268 269
255 256 256 256 257 257 257 257 257 257 257 258 259 260 259 259 259 259 260 260 260 260 259 259 258 258 259 260 260 260 260 260 260 260 262 263 265 266 267 269 270 269 270
255 255 256 257 257 257 258 258 258 257 256 258 260 262 261 260 260 260 260 261 261 261 260 260 260 259 259 260 261 261 261 261 261 261 262 263 265 267 268 269 269 270 271
255 255 256 256 257 258 259 259 257 258 258 259 261 262 262 261 261 260 260 261 261 260 259 259 259 259 260 261 263 262 261 262 262 263 264 265 266 267 268 269 271 270 270
255 255 255 256 257 258 259 259 260 260 260 261 262 262 262 262 262 262 261 260 260 259 259 258 259 260 260 262 263 263 263 264 265 265 265 266 267 268 268 269 270 270 271
255 255 256 256 256 257 258 259 260 261 262 262 262 263 263 263 263 261 260 260 259 259 259 258 259 260 261 261 261 262 263 265 266 267 267 267 267 267 267 269 270 271 271
255 254 255 256 257 257 257 258 259 261 262 262 263 263 264 263 262 260 259 259 259 260 261 259 259 259 260 261 261 262 265 266 267 268 268 269 269 268 268 268 269 270 271
254 254 254 255 256 257 258 258 259 261 261 262 263 264 264 263 262 260 259 259 260 260 261 260 260 260 260 262 263 264 266 267 268 268 268 268 269 268 268 268 268 270 270
254 254 255 255 256 257 257 259 260 260 261 262 263 263 263 263 262 262 261 260 260 259 260 260 262 263 263 263 264 264 265 267 267 268 268 269 269 268 269 269 269 269 269
254 255 255 255 256 256 257 258 259 260 261 261 262 262 263 263 263 263 263 262 259 259 261 262 263 263 263 263 263 265 266 266 267 268 268 268 268 268 267 268 269 268 269
255 255 255 254 255 256 258 259 260 259 259 260 260 261 262 263 263 263 264 264 262 261 261 261 263 263 262 262 263 264 265 267 267 267 267 266 267 267 268 268 269 269 269
254 254 255 255 255 256 257 258 259 259 260 260 261 261 262 263 264 264 264 264 264 262 262 263 264 264 264 264 264 265 266 266 267 267 267 266 267 268 268 268 269 269 269
254 254 254 255 256 257 257 258 258 259 260 261 262 262 262 264 264 264 264 265 265 264 264 264 265 267 267 267 268 267 266 266 266 267 267 267 268 268 268 269 269 270 270
253 253 254 254 255 256 257 258 259 259 260 261 262 262 263 264 264 265 265 265 266 266 265 265 266 267 269 269 268 267 267 266 266 267 268 268 269 270 270 270 270 270 271
253 253 253 254 254 256 257 257 258 259 260 260 261 262 263 264 265 265 265 266 267 266 266 266 266 268 269 270 269 267 267 267 267 268 269 270 271 271 270 271 270 270 271
252 251 252 253 254 256 256 256 257 258 259 259 260 262 263 264 265 265 265 267 268 268 268 268 268 268 268 269 268 268 269 268 267 268 270 271 271 271 271 271 270 271 271
252 251 251 253 254 256 256 256 257 257 258 260 261 262 263 264 264 264 265 268 269 270 270 270 269 269 268 268 269 269 269 268 268 268 270 271 272 272 272 271 271 271 272
252 252 252 253 255 256 256 256 256 257 258 259 261 261 263 264 264 266 267 269 270 271 271 271 271 270 269 269 269 269 268 268 268 269 270 272 273 273 273 272 272 272 271
251 252 253 254 255 257 257 256 256 257 258 259 260 261 262 264 265 267 268 269 270 271 272 272 272 272 271 270 269 269 269 269 268 269 270 272 273 273 273 272 272 272 272
251 252 254 255 256 257 257 257 257 257 258 259 260 261 262 263 265 268 269 270 271 272 273 274 273 273 273 272 271 271 270 271 270 270 271 273 274 274 273 271 271 271 272
251 252 254 255 256 257 257 257 258 258 258 259 260 261 263 265 267 269 269 270 271 272 273 273 274 274 273 272 273 272 272 272 272 272 273 274 274 273 272 271 271 272 272
252 253 254 255 256 256 256 256 256 257 258 259 260 262 264 266 267 269 269 270 271 272 272 273 275 274 273 273 273 273 273 273 273 273 273 274 275 274 273 272 271 272 272
254 254 254 255 255 255 257 258 258 258 259 260 261 263 264 265 266 267 269 270 271 272 273 274 274 275 274 274 273 274 274 273 273 273 273 274 275 275 274 273 272 272 272
Height
5797 5799 5801 5802 5804 5806 5808 5809 5811 5813 5814 5816 5817 5819 5820 5822 5823 5824 5826 5826 5827 5828 5829 5831 5832 5833 5834 5835 5836 5837 5838 5839 5840 5841 5842 5842 5843 5843 5843 5844 5844 5844 5844
5790 5792 5794 5796 5797 5799 5801 5803 5804 5806 5808 5809 5811 5812 5814 5815 5817 5818 5819 5820 5821 5822 5823 5825 5826 5827 5828 5829 5830 5832 5833 5834 5834 5835 5836 5836 5837 5837 5838 5838 5838 5838 5838
5783 5784 5786 5788 5790 5792 5794 5795 5797 5799 5801 5803 5804 5805 5807 5808 5810 5811 5812 5813 5815 5816 5817 5818 5819 5821 5822 5823 5824 5825 5826 5827 5828 5829 5829 5830 5831 5831 5831 5832 5832 5832 5832
5775 5777 5779 5780 5782 5784 5786 5788 5790 5791 5793 5795 5797 5798 5800 5801 5802 5804 5805 5806 5807 5809 5810 5812 5813 5814 5815 5816 5817 5818 5819 5820 5821 5822 5823 5823 5824 5824 5824 5825 5825 5825 5825
5766 5768 5770 5772 5774 5776 5778 5780 5782 5784 5785 5787 5789 5790 5792 5793 5795 5796 5797 5799 5800 5801 5803 5804 5805 5806 5808 5809 5810 5811 5812 5813 5814 5815 5815 5816 5816 5817 5817 5817 5817 5817 5817
5758 5760 5762 5764 5766 5768 5770 5772 5774 5776 5777 5779 5781 5782 5784 5785 5787 5788 5789 5791 5792 5793 5795 5796 5798 5799 5800 5801 5802 5803 5804 5805 5806 5807 5807 5808 5808 5809 5809 5809 5809 5809 5809
5749 5751 5753 5755 5757 5759 5761 5763 5765 5767 5769 5770 5772 5774 5775 5776 5778 5779 5781 5782 5784 5785 5786 5788 5789 5790 5792 5793 5794 5795 5795 5796 5797 5798 5799 5799 5800 5800 5800 5800 5800 5800 5800
5740 5742 5744 5746 5748 5750 5752 5754 5756 5758 5760 5761 5763 5764 5766 5768 5769 5770 5772 5773 5775 5776 5778 5779 5780 5782 5783 5784 5785 5786 5787 5787 5788 5789 5790 5790 5790 5791 5791 5791 5791 5791 5791
5730 5732 5734 5736 5739 5741 5743 5745 5747 5749 5750 5752 5753 5755 5756 5758 5760 5761 5762 5764 5765 5767 5768 5769 5771 5772 5773 5775 5776 5777 5778 5778 5779 5779 5780 5780 5781 5781 5781 5781 5781 5781 5781
5720 5722 5725 5727 5729 5731 5734 5736 5738 5739 5741 5742 5743 5745 5747 5749 5750 5752 5753 5754 5756 5757 5758 5759 5761 5763 5764 5765 5766 5768 5768 5769 5769 5770 5770 5770 5770 5770 5770 5771 5771 5771 5771
5710 5712 5715 5717 5719 5722 5724 5726 5728 5729 5731 5733 5734 5735 5737 5738 5739 5741 5743 5745 5746 5747 5748 5750 5751 5752 5754 5755 5756 5757 5758 5758 5759 5759 5759 5759 5759 5759 5759 5759 5760 5760 5760
5700 5702 5704 5707 5709 5711 5714 5716 5718 5719 5721 5722 5724 5725 5727 5728 5729 5731 5732 5734 5736 5737 5738 5740 5741 5742 5743 5744 5745 5746 5747 5747 5747 5748 5748 5748 5748 5748 5748 5748 5748 5748 5748
5689 5692 5694 5696 5699 5701 5703 5705 5707 5709 5711 5712 5714 5715 5716 5718 5719 5720 5722 5723 5725 5726 5728 5729 5730 5731 5732 5733 5734 5734 5735 5736 5736 5736 5736 5736 5736 5736 5736 5735 5736 5735 5735
5679 5681 5683 5685 5688 5690 5692 5694 5697 5699 5700 5702 5704 5705 5706 5707 5708 5710 5711 5712 5714 5716 5717 5718 5719 5720 5721 5721 5722 5723 5723 5724 5724 5724 5724 5724 5723 5723 5723 5723 5722 5722 5722
5667 5670 5672 5674 5677 5679 5682 5684 5686 5688 5690 5691 5693 5694 5696 5697 5698 5699 5700 5701 5703 5705 5706 5707 5708 5708 5708 5709 5710 5711 5711 5711 5711 5711 5711 5711 5710 5710 5710 5710 5709 5709 5709
5656 5658 5661 5663 5666 5668 5671 5673 5676 5677 5679 5681 5682 5683 5685 5686 5687 5688 5689 5690 5691 5693 5695 5696 5696 5696 5696 5697 5697 5698 5698 5698 5698 5698 5698 5698 5697 5697 5697 5696 5696 5695 5695
5645 5647 5650 5652 5655 5657 5660 5662 5665 5667 5668 5670 5671 5673 5674 5675 5676 5677 5678 5679 5680 5681 5683 5684 5684 5684 5684 5684 5684 5684 5685 5685 5685 5685 5684 5684 5684 5683 5683 5682 5682 5681 5681
5633 5636 5638 5641 5644 5646 5649 5651 5654 5655 5657 5659 5660 5662 5663 5664 5665 5666 5667 5668 5668 5669 5670 5671 5672 5672 5672 5671 5671 5671 5672 5671 5672 5672 5671 5671 5670 5669 5669 5669 5668 5668 5668
5622 5625 5627 5630 5633 5635 5638 5640 5642 5644 5646 5648 5649 5651 5652 5653 5654 5655 5655 5656 5657 5657 5657 5658 5659 5659 5659 5659 5658 5658 5658 5659 5659 5658 5658 5657 5656 5656 5655 5654 5654 5654 5654
5611 5614 5616 5619 5622 5624 5626 5629 5631 5633 5635 5637 5638 5639 5640 5641 5643 5643 5644 5645 5645 5645 5645 5646 5646 5647 5647 5646 5645 5646 5646 5646 5646 5645 5644 5644 5643 5642 5641 5641 5641 5640 5640
5601 5603 5606 5608 5611 5613 5615 5617 5620 5622 5624 5626 5627 5628 5629 5630 5631 5632 5633 5633 5633 5633 5633 5633 5634 5634 5633 5633 5633 5633 5633 5633 5633 5632 5631 5631 5630 5629 5628 5627 5626 5626 5626
5590 5592 5595 5597 5599 5601 5604 5606 5608 5610 5612 5614 5616 5617 5618 5619 5619 5620 5620 5621 5621 5621 5621 5621 5621 5621 5620 5620 5619 5619 5619 5619 5620 5620 5618 5617 5616 5615 5614 5614 5613 5613 5612
5579 5581 5584 5586 5588 5590 5592 5594 5596 5599 5601 5603 5604 5605 5606 5607 5608 5608 5608 5609 5609 5608 5609 5608 5608 5608 5608 5607 5606 5606 5606 5605 5606 5605 5604 5604 5602 5601 5601 5600 5599 5599 5599
5568 5571 5573 5575 5577 5579 5580 5583 5585 5587 5589 5591 5592 5593 5594 5595 5595 5596 5596 5597 5597 5597 5596 5596 5596 5596 5594 5594 5593 5593 5592 5592 5592 5591 5590 5590 5589 5588 5587 5587 5586 5586 5585
5557 5560 5562 5564 5566 5568 5569 5571 5573 5575 5577 5579 5580 5581 5582 5583 5584 5584 5584 5585 5585 5585 5584 5584 5584 5583 5582 5581 5580 5580 5580 5579 5579 5579 5578 5577 5576 5575 5575 5574 5573 5573 5572
5547 5549 5551 5553 5555 5557 5559 5560 5562 5564 5566 5568 5569 5570 5570 5571 5571 5571 5572 5572 5573 5573 5572 5572 5572 5571 5570 5569 5568 5567 5567 5566 5566 5566 5565 5564 5563 5562 5562 5562 5560 5559 5559